Location: ??
(34.9170°N, 135.5016°E)
Time: 17:08:26
(UTC+00:00)

Cosmos 1428 Rocket - Pass Details

Date: 29 October 2020
Orbit: 947 x 989 km, 82.9° (Epoch: 29 November)

Event Time Altitude Azimuth Distance (km) Brightness Sun altitude
Rises 19:41:55 0° 185° (S) 3,666 7.5 -20.0°
Reaches altitude 10° 19:44:26 10° 185° (S) 2,717 6.8 -19.5°
Maximum altitude 19:50:40 89° 270° (W) 975 4.4 -18.2°
Drops below altitude 10° 19:56:53 10° 6° (N) 2,704 6.8 -16.9°
Sets 19:59:22 0° 7° (N) 3,648 7.5 -16.4°
